sat.trackr.live / text

‹ back to catalog

STARLINK-35509

NORAD 66199 · 2025-243Y

PAYLOAD ACTIVE UNKNOWN

§ Identity

Operator
Country
US
Launch date
2025-10-26
Launch site
AFETR
Launch vehicle
Mass (kg)
RCS (m²)

Purposes: comms

External: N2YO · Heavens-Above · Gunter

§ Orbital elements

Epoch: 2026-05-25T00:42:25.674048Z

Period
94.11 min
Inclination
53.1586°
Eccentricity
0.0001223
Mean motion
15.30204713 rev/d
Perigee alt
474.4 km
Apogee alt
476.0 km
Semi-major
6,853.3 km
B*
5.9475e-4
RAAN
250.5219°
Arg perigee
86.0890°
Mean anomaly
274.0251°
Rev number
3,234

§ Raw data

STARLINK-355091 66199U 25243Y   26145.02946382  .00017299  00000+0  59475-3 0  99992 66199  53.1586 250.5219 0001223  86.0890 274.0251 15.30204713 32343

JSON: /api/v1/satellites/66199 · /tle

For live sub-satellite position, see the globe view (requires WebGL).

§ Visibility from observer

Set your observer location to see the next 7 days of passes ≥ 10°. The values pass through the URL so the page stays shareable.

No JS? Fill the form by hand. The geolocation button needs JavaScript.